Location: Newnham
(52.3167°N, 2.5333°W)
Time: 17:06:32
(UTC+00:00)

Daily predictions for brighter satellites

Satellite Brightness Start Highest point End
(mag) Time Altitude Azimuth Time Altitude Azimuth Time Altitude Azimuth
USA 306 3.0 18:19:48 10° WSW 18:24:05 85° NNW 18:28:23 10° ENE
Cosmos 1354 Rocket 4.4 18:19:03 10° NNW 18:24:07 44° NE 18:29:07 10° SE
Cosmos 44 Rocket 3.6 18:20:10 10° NW 18:25:26 85° SW 18:30:39 10° SE
FALCON 9 DEB 2.9 18:23:10 10° W 18:26:21 80° N 18:29:31 10° E
ERS-2 3.2 18:23:53 10° NE 18:26:55 24° E 18:29:57 10° SSE
Cosmos 1844 Rocket 3.0 18:22:18 10° NNW 18:27:44 49° NE 18:33:07 10° SE
Cosmos 2084 Rocket 3.5 18:23:37 10° NW 18:27:56 88° NE 18:32:24 10° SE
FALCON 9 DEB 3.0 18:25:07 10° W 18:28:19 83° N 18:31:32 10° E
Okean-O 2.7 18:25:34 10° SSE 18:29:56 62° ENE 18:34:21 10° N
USA 308 3.0 18:26:58 10° WSW 18:31:17 83° NNW 18:35:34 10° ENE
CSL-04 Rocket 4.0 18:26:11 10° SE 18:31:29 48° ENE 18:36:44 10° N
Cosmos 1271 Rocket 3.1 18:28:45 10° NNW 18:32:29 68° W 18:36:13 10° S
CSL-04 Debris 4.4 18:27:33 10° SE 18:32:48 51° ENE 18:38:06 10° N
Cosmos 1503 Rocket 4.1 18:29:17 10° NNW 18:34:26 58° ENE 18:39:32 10° SE
Cosmos 1666 4.4 18:33:39 10° ESE 18:35:18 13° E 18:36:58 10° ENE
H-2A R/B 2.9 18:31:57 10° N 18:35:58 53° WNW 18:39:57 10° SW
SKYMED 2 3.6 18:32:42 10° NNE 18:37:04 89° NNW 18:41:26 10° SSW
HJ-1C 3.6 18:34:36 10° SE 18:37:47 46° ENE 18:40:59 10° N
MOS 1 Rocket 3.7 18:33:04 10° NNE 18:38:05 80° WNW 18:43:21 10° SSW
PSLV R/B 4.3 18:34:12 10° NNE 18:38:07 41° E 18:41:59 10° S
Cosmos 1844 4.0 18:33:52 10° NNW 18:39:32 51° NE 18:45:06 10° SE
Cosmos 2278 4.3 18:34:25 10° SW 18:40:04 61° NW 18:45:45 10° NNE
CZ-4B R/B 1.2 18:39:10 10° NNE 18:42:13 83° WNW 18:45:17 10° SSW
Cosmos 1805 Rocket 4.4 18:38:08 10° SSW 18:42:27 55° WNW 18:46:49 10° N
Cosmos 1470 Rocket 4.0 18:38:52 10° SSE 18:43:02 40° E 18:47:13 10° NNE
Cosmos 2278 Rocket 3.6 18:40:08 10° NNW 18:44:32 22° NNE 18:48:36 11° E
Cosmos 2360 Rocket 3.0 18:40:26 10° SSE 18:45:16 30° ESE 18:50:08 10° NE
Cosmos 1602 3.7 18:42:46 10° S 18:46:36 61° E 18:50:30 10° NNE
Ariane Rocket 4.1 18:42:54 10° ESE 18:47:02 26° ENE 18:51:12 10° N
Meteor 1-19 Rocket 4.3 18:41:25 10° NNW 18:47:27 81° ENE 18:53:16 10° SSE
Meteor 2-4 Rocket 3.9 18:46:13 10° N 18:51:57 56° ENE 18:57:46 10° SSE
Cosmos 1703 Rocket 4.1 18:48:09 10° N 18:52:18 38° ENE 18:56:23 10° SE
Okean O Rocket 4.5 18:48:56 10° SW 18:52:21 22° W 18:55:48 10° NW
Cosmos 1500 3.7 18:50:18 10° SSE 18:53:42 35° E 18:57:09 10° NNE
Cosmos 1689 Rocket 2.2 18:52:47 10° NNE 18:55:35 46° E 18:58:23 10° S
Cosmos 2333 Rocket 3.5 18:52:09 10° SE 18:55:44 17° E 18:59:20 10° ENE
SL-08 RB Rocket 3.7 18:54:03 10° SSE 18:58:32 64° ENE 19:03:04 10° N
Meteor 2-12 Rocket 4.5 18:53:22 10° S 18:59:17 57° E 19:05:16 10° NNE
ERBS 2.2 18:56:18 10° WSW 18:59:37 89° SE 19:02:18 15° ENE
Cosmos 1980 Rocket 3.4 18:55:45 10° WSW 19:01:10 44° NW 19:06:39 10° NNE
Cosmos 1943 Rocket 4.3 19:00:20 10° NNW 19:02:58 13° NNE 19:05:37 10° NE
Aureole 2 Rocket 2.1 19:00:36 10° NNW 19:03:09 59° WSW 19:05:36 10° SSE
Cosmos 1933 Rocket 3.8 18:59:48 10° SSE 19:03:56 43° E 19:08:07 10° NNE
Cosmos 1862 Rocket 4.0 18:59:58 10° NNW 19:04:27 68° W 19:08:55 10° S
Cosmos 1666 Rocket 4.0 19:01:09 10° SSW 19:05:28 65° WNW 19:09:47 10° N
Cosmos 2242 Rocket 3.6 19:05:56 10° N 19:10:27 62° ENE 19:14:53 10° SSE
Cosmos 2327 Rocket 4.5 19:05:38 10° S 19:11:58 83° E 19:18:14 10° NNE
Resurs 01 Rocket 3.1 19:12:41 18° ENE 19:13:39 19° ENE 19:16:44 10° NNE
Cosmos 1461 3.6 19:10:09 10° SW 19:14:53 67° NW 19:19:37 10° NE
Cosmos 2322 Rocket 2.1 19:09:21 10° SSW 19:14:57 76° ESE 19:20:36 10° NNE
Abrixas rocket 2.6 19:13:13 10° WSW 19:15:29 31° S 19:16:07 27° SE
Nadezhda 3 Rocket 4.4 19:12:54 10° NNW 19:19:15 72° W 19:25:34 10° S
FALCON 9 DEB 2.9 19:16:11 10° W 19:19:22 77° N 19:20:47 30° E
Helios 1A Rocket 3.3 19:16:53 10° S 19:20:55 65° WSW 19:24:57 10° NNW
YAOGAN 1 3.9 19:17:40 10° S 19:21:47 42° W 19:25:56 10° NNW
COSMO-SKYMED 1 4.4 19:21:06 10° N 19:25:02 34° WNW 19:28:57 10° SW
COSMOS 2428 3.9 19:21:27 10° SSE 19:32:11 - NE 19:24:51 21° ESE
SJ-6B 3.1 19:22:30 15° SE 19:25:45 50° ENE 19:29:42 10° N
ASTEX 1 4.0 19:21:36 10° NNE 19:26:02 33° E 19:30:11 11° SSE
Cosmos 2154 Rocket 4.1 19:22:48 10° SSW 19:29:01 78° W 19:35:16 10° N
GP-B 3.0 19:25:18 10° S 19:29:44 82° E 19:34:12 10° N
Cosmos 1295 Rocket 4.5 19:23:34 10° S 19:29:49 88° W 19:36:03 10° N
Meteor 1-14 Rocket 4.1 19:24:38 10° S 19:30:11 84° ESE 19:35:46 10° NNE
MOS 1 4.4 19:25:33 11° SE 19:30:47 54° ENE 19:36:19 10° N
FALCON 9 DEB 2.8 19:28:36 10° W 19:31:47 80° N 19:32:42 43° E
Cosmos 2219 Rocket 3.0 19:27:49 10° SSE 19:32:27 28° ESE 19:37:07 10° NE
Meteor 1-11 Rocket 4.2 19:27:54 10° SSE 19:33:06 38° E 19:38:14 10° NNE
MetOp-A 4.1 19:29:29 10° SSE 19:34:50 79° ENE 19:40:13 10° NNW
OBJECT-B 0.9 19:36:24 43° ESE 19:36:58 50° ENE 19:40:07 10° N
Cosmos 1992 Rocket 4.0 19:31:48 10° SSW 19:37:03 83° WNW 19:42:19 10° NNE
SJ 16-02 2.1 19:34:46 10° N 19:38:47 33° NE 19:39:34 31° ENE
ARGOS 4.2 19:33:58 10° S 19:39:13 48° W 19:44:29 10° NNW
Okean 1-7 3.0 19:35:14 10° NNW 19:39:39 84° WSW 19:43:59 10° S
SL-16 R/B 2.6 19:34:02 10° SW 19:39:40 65° NW 19:45:20 10° NNE
SeaSat 1 2.3 19:35:14 10° NE 19:40:12 73° ESE 19:45:08 10° SSW
Resurs 1-3 4.0 19:38:47 31° ESE 19:40:18 43° ENE 19:44:29 10° N
Cosmos 1066 Rocket 4.3 19:36:05 10° N 19:41:42 56° ENE 19:45:41 20° SE
Meteor 1-13 Rocket 4.3 19:36:09 10° N 19:42:09 74° ENE 19:48:02 10° SSE
SAR-Lupe-4 4.4 19:39:35 10° N 19:43:06 53° WNW 19:46:36 10° SSW
USA 234 3.6 19:39:54 22° ENE 19:43:44 42° SE 19:49:53 10° SSW
Cosmos 1536 4.4 19:46:16 21° NE 19:46:16 21° NE 19:47:56 10° NNE
CZ-4 R/B 4.1 19:42:25 10° SW 19:45:21 20° W 19:48:20 10° NW
CZ-2C R/B 2.7 19:42:01 10° NNE 19:47:35 82° WNW 19:52:58 10° SSW
Cosmos 2369 Rocket 4.2 19:45:25 10° NNW 19:48:16 14° NNE 19:50:42 11° NE
USA 305 3.0 19:45:17 10° W 19:49:34 70° N 19:50:56 41° ENE
H-2A R/B 4.1 19:45:12 10° SSW 19:49:57 30° W 19:54:44 10° NNW
BREEZE-M DEB (TANK) 2.4 19:47:29 10° W 19:50:00 58° S 19:51:10 39° ESE
IRS-1A Rocket 4.2 19:46:43 13° SSE 19:51:43 77° ENE 19:57:17 10° NNW
Cosmos 2322 3.9 19:46:48 10° S 19:52:15 47° ESE 19:57:43 10° NE
DMSP B5D2-2 3.9 19:48:07 10° NNE 19:53:24 78° ESE 19:58:36 10° SSW
SL-4 R/B 1.9 19:50:23 10° W 19:53:48 51° SSW 19:54:12 47° S
USA 186 2.3 19:56:42 41° W 19:56:42 41° W 19:58:59 10° NNW
Cosmos 1898 Rocket 4.4 19:52:38 10° NNW 19:57:14 30° NE 19:57:51 29° ENE
Cosmos 1869 Rocket 3.4 19:53:52 10° S 19:58:11 65° E 20:02:34 10° NNE
Gbstr 26 Del rocket 3.3 19:54:22 10° W 19:59:01 86° S 20:00:58 41° E
Cosmos 2237 4.3 19:53:18 10° SW 19:59:03 80° WNW 20:04:50 10° NNE
ERS-2 3.9 19:57:11 10° N 20:00:32 34° WNW 20:03:51 10° SW
SL-8 Rocket 3.9 19:54:31 10° S 20:00:44 81° E 20:06:58 10° NNE
USA 307 3.0 19:56:36 10° W 20:00:54 71° N 20:01:49 51° ENE
FALCON 9 DEB 3.0 19:59:03 10° WNW 20:01:56 71° W 20:01:56 71° W
ATLAS CENTAUR R/B 0.9 19:59:09 10° SW 20:02:46 87° SE 20:03:11 69° NE
Cosmos 1378 3.0 20:00:10 10° N 20:03:53 71° ENE 20:03:53 71° ENE
USA 306 2.9 20:00:00 10° W 20:04:16 72° N 20:05:03 55° ENE
FALCON 9 DEB 3.1 20:01:05 10° W 20:03:59 70° W 20:03:59 70° W
Cosmos 1666 2.9 20:06:38 10° SSW 20:10:19 66° WNW 20:14:05 10° N
USA 308 2.9 20:07:12 10° WNW 20:11:29 72° N 20:11:59 64° ENE
Cosmos 1844 Rocket 4.0 20:06:26 10° NW 20:11:30 36° WSW 20:16:32 10° S
Cosmos 1777 Rocket 4.4 20:09:49 10° NNW 20:15:00 60° WSW 20:18:16 22° S
NOSS 3-3 (A) 4.4 20:08:04 10° NW 20:15:18 74° NE 20:18:42 38° ESE
NOSS 3-3 (C) 4.4 20:08:10 10° NW 20:15:24 74° NE 20:18:47 39° ESE
Cosmos 2366 rocket 3.9 20:09:28 10° S 20:15:48 84° E 20:22:12 10° NNE
Landsat 7 4.2 20:17:05 44° NE 20:17:05 44° NE 20:21:16 10° N
Okean 3 3.7 20:13:36 10° NNW 20:17:50 67° W 20:19:31 35° S
SPOT 3 Rocket 3.5 20:18:37 54° SE 20:19:40 68° ENE 20:24:53 10° NNW
ARIANE 5 R/B 4.0 20:21:38 26° NNE 20:21:38 26° NNE 20:24:16 10° N
Cosmos 2333 4.1 20:17:10 10° SSW 20:22:49 81° ESE 20:28:34 10° NNE
Cosmos 2221 Rocket 3.4 20:18:43 10° N 20:23:10 79° E 20:23:10 79° E
Ariane Rocket 3.4 20:22:15 21° S 20:25:39 62° WSW 20:30:45 10° NNW
Cosmos 2360 Rocket 2.7 20:23:22 10° SW 20:28:57 59° NW 20:34:36 10° NNE
SPOT 1/Viking Rocket 4.0 20:29:56 44° NE 20:29:56 44° NE 20:34:21 10° N
Cosmos 2278 Rocket 2.1 20:23:54 10° NNW 20:29:37 75° ENE 20:30:28 62° ESE
Cosmos 1727 Rocket 4.0 20:28:04 10° NNW 20:34:16 79° W 20:37:44 28° S
Cosmos 990 Rocket 4.1 20:29:10 10° NNW 20:34:05 58° NE 20:34:05 58° NE
Meteor 2-20 4.4 20:29:26 10° NNW 20:35:35 84° W 20:38:13 37° S
ERBS 4.1 20:32:55 10° WNW 20:35:08 30° NW 20:35:08 30° NW
Cosmos 2333 Rocket 2.1 20:33:28 10° SSW 20:39:10 85° ESE 20:44:57 10° NNE
SPOT 5 4.5 20:41:58 22° NNE 20:41:58 22° NNE 20:43:59 10° N
Cosmos 1821 Rocket 3.9 20:41:55 62° E 20:41:55 62° E 20:47:57 10° NNE
Cosmos 2218 Rocket 4.4 20:36:42 10° SSW 20:43:03 65° WNW 20:49:27 10° N
IGS 5A 4.5 20:47:41 41° N 20:47:41 41° N 20:50:27 10° NNW
Cosmos 1000 Rocket 4.4 20:41:11 10° N 20:47:30 82° E 20:48:32 64° SSE
Cosmos 1943 Rocket 3.4 20:43:46 10° NNW 20:48:24 29° NE 20:48:24 29° NE
Resurs 01 Rocket 2.0 20:50:14 62° NW 20:50:14 62° NW 20:54:07 10° NNW
MetOp-B 4.0 20:50:11 84° NE 20:50:11 84° NE 20:55:31 10° NNW
Lacrosse 4 Rocket 4.1 20:50:51 10° SW 20:50:57 11° SW 20:50:57 11° SW
Cosmos 2322 Rocket 4.0 20:54:46 10° W 20:59:36 28° NW 21:04:28 10° NNE
Cosmos 2123 Rocket 4.0 20:54:20 10° N 21:00:10 65° NE 21:00:10 65° NE
USA 245 4.3 21:07:21 79° N 21:07:21 79° N 21:13:14 10° NNW
Cosmos 1937 Rocket 4.2 21:02:50 10° NNW 21:06:40 47° N 21:06:40 47° N
COSMOS 2428 3.5 21:03:35 10° SW 21:14:00 16° NNE 21:15:02 10° NNE
OBJECT-B 3.9 21:09:28 13° W 21:09:30 13° W 21:11:06 10° WNW
Cosmos 2219 Rocket 2.5 21:10:28 10° SW 21:16:00 63° NW 21:21:38 10° NNE
SeaSat 1 4.3 21:13:12 10° NNE 21:17:22 28° NW 21:21:31 10° W
SJ 16-02 2.9 21:13:20 10° NW 21:16:35 33° W 21:16:35 33° W
Terra 3.7 21:21:49 23° N 21:21:49 23° N 21:23:44 10° N
USA 234 3.1 21:27:15 86° NW 21:27:15 86° NW 21:33:44 10° WSW
USA 281 3.7 21:34:30 48° NNE 21:34:30 48° NNE 21:39:55 10° NNW
Cosmos 2369 Rocket 3.6 21:29:00 10° NNW 21:32:29 29° NNE 21:32:29 29° NNE
ERS-1 Rocket 4.5 21:44:09 32° NNW 21:44:09 32° NNW 21:46:51 10° NNW
ATLAS CENTAUR R/B 4.3 21:39:13 10° WNW 21:39:24 11° WNW 21:39:24 11° WNW
Cosmos 2278 Rocket 4.1 22:08:47 10° NW 22:12:20 22° W 22:12:20 22° W
Cosmos 2333 Rocket 4.1 22:19:21 10° W 22:24:10 27° NW 22:29:01 10° NNE
Cosmos 1943 Rocket 4.0 22:27:21 10° NNW 22:29:55 28° NW 22:29:55 28° NW
Cosmos 2219 Rocket 4.5 22:57:04 10° WNW 23:01:07 20° NNW 23:05:13 10° NNE
